Regional Weather Roundup
Issued by NWS

Home | Current Version | Previous Version | Graphics & Text | Print | Product List | Glossary Off
Versions: 1 2 3 4 5 6 7 8 9 10 11 12 13 14 15 16 17 18 19 20 21 22 23 24 25 26 27 28 29 30 31 32 33 34 35 36 37 38 39 40 41 42 43 44 45 46 47 48 49 50

000
ASUS43 KOAX 251910
RWRNE

WEATHER ROUNDUP FOR NEBRASKA
NATIONAL WEATHER SERVICE OMAHA NE
200 PM CDT FRI JUL 25 2014

NOTES: SATELLITE DATA IS BEING USED TO AUGMENT CLOUD COVER ABOVE
       12000 FEET.
       "FAIR" INDICATES FEW OR NO CLOUDS BELOW 12,000 FEET WITH NO
       SIGNIFICANT WEATHER AND/OR OBSTRUCTIONS TO VISIBILITY.

  * THESE STATIONS DO NOT REPORT WEATHER SUCH AS RAIN...SNOW OR FOG.

NEZ001>004-019>022-054>056-252000-
NEBRASKA PANHANDLE

CITY           SKY/WX    TMP DP  RH WIND       PRES   REMARKS
SCOTTSBLUFF    PTSUNNY   82  44  26 SE7       30.01F
ALLIANCE       MOSUNNY   85  44  23 NE10G17   30.00F
CHADRON        SUNNY     82  40  22 E9        29.97F
KIMBALL        PTSUNNY   80  53  39 NE3       30.05F
SIDNEY         PTSUNNY   87  49  26 N8        30.04S
$$

NEZ057>060-069>072-079>082-252000-
SOUTHWEST NEBRASKA

CITY           SKY/WX    TMP DP  RH WIND       PRES   REMARKS
NORTH PLATTE   MOSUNNY   89  65  44 N12       29.90S HX  91
IMPERIAL       SUNNY     86  61  42 N10       29.96S
LEXINGTON      MOSUNNY   89  68  49 N8        29.86S HX  93
MCCOOK         MOSUNNY   91  65  41 N13       29.88S HX  93
OGALLALA       MOSUNNY   86  57  37 N6        29.95S
$$

NEZ005>010-023>029-035>040-094-252000-
NORTH CENTRAL NEBRASKA

CITY           SKY/WX    TMP DP  RH WIND       PRES   REMARKS
VALENTINE      SUNNY     86  64  47 N16       29.89F
AINSWORTH      SUNNY     83  66  56 NW14      29.88F
BROKEN BOW     MOSUNNY   87  70  56 N13       29.87R HX  92
O`NEILL        MOSUNNY   89  64  42 N10       29.82S HX  90
ORD            MOSUNNY   87  70  56 N8        29.82R HX  92
THEDFORD       PTSUNNY   85  67  53 N8G16     29.92R
$$

NEZ041-046>049-061>064-073>077-083>087-252000-
SOUTH CENTRAL NEBRASKA

CITY           SKY/WX    TMP DP  RH WIND       PRES   REMARKS
GRAND ISLAND   MOSUNNY   92  67  43 NW13      29.80S HX  95
AURORA         MOSUNNY   89  70  51 W10       29.79R HX  94
HASTINGS       MOSUNNY   91  64  40 NW12      29.80S HX  92
HEBRON         SUNNY     95  64  35 SW5       29.76F HX  97
HOLDREGE       PTSUNNY   89  67  48 N9        29.84S HX  92
KEARNEY *      SUNNY     90  66  45 NW13      29.84R HX  92
YORK           MOSUNNY   90  72  55 W8        29.77S HX  96
$$

NEZ011>018-030>034-042>045-252000-
NORTHEAST NEBRASKA

CITY           SKY/WX    TMP DP  RH WIND       PRES   REMARKS
NORFOLK        MOSUNNY   90  71  53 NW10      29.76R HX  96
ALBION         SUNNY     86  71  61 NW10      29.79S HX  91
BLAIR          SUNNY     87  73  64 S9        29.74F HX  94
COLUMBUS *     MOSUNNY   90  72  55 W8        29.76R HX  96
FREMONT        MOSUNNY   91  76  62 E6        29.74S HX 102
WAYNE          CLOUDY    86  73  65 CALM      29.77S HX  92
$$

NEZ050>053-065>068-078-088>093-252000-
SOUTHEAST NEBRASKA

CITY           SKY/WX    TMP DP  RH WIND       PRES   REMARKS
LINCOLN        MOSUNNY   97  70  41 W8        29.74S HX 103
OMAHA EPPLEY   MOSUNNY   89  72  56 S13       29.73F HX  96
BEATRICE       SUNNY     95  73  48 W8        29.75F HX 103
FALLS CITY     SUNNY     98  72  42 S12G21    29.75S HX 107
NEBRASKA CITY  SUNNY     95  68  41 SW9       29.74F HX  99
PLATTSMOUTH    SUNNY     91  76  60 SE9       29.74F HX 102
$$

NEZ044-045-051>053-067-252000-
OMAHA AREA

CITY           SKY/WX    TMP DP  RH WIND       PRES   REMARKS
OMAHA EPPLEY   MOSUNNY   89  72  56 S13       29.73F HX  96
BLAIR          SUNNY     87  73  64 S9        29.74F HX  94
FREMONT        MOSUNNY   91  76  62 E6        29.74S HX 102
MILLARD        SUNNY     89  76  65 SE12      29.72F HX 100
OFFUTT AFB     MOSUNNY   89  78  70 SE9       29.73F HX 102
PLATTSMOUTH    SUNNY     91  76  60 SE9       29.74F HX 102
WAHOO          FAIR      92  71  49 W3        29.73S HX  99
$$


USA.gov is the U.S. government's official web portal to all federal, state and local government web resources and services.